Location: Newark
(34.6501°N, 117.8502°W)
Time: 11:59:45
(UTC+00:00)

BlueWalker 3 - Pass Details

Date: 12 December 2022
Orbit: 499 x 517 km, 53.2° (Epoch: 04 February)

Event Time Altitude Azimuth Distance (km) Brightness Sun altitude
Rises 02:07:00 0° 315° (NW) 2,618 6.0 -17.2°
Maximum altitude 02:13:07 84° 46° (NE) 512 1.8 -18.4°
Enters shadow 02:14:50 32° 132° (SE) 887 2.9 -18.7°
